Anchorage, AK (99501)

3:14 AM AKST on February 11, 2016 (GMT -0900)
Merrill | | Change Station
CLOSE
Current Station
Airport
Location: Anchorage Merrill,
Elevation: 135 ft
Nearby Weather Stations

Elev 135 ft 61.22 °N, 149.85 °W | Updated 1 hour ago

Overcast
Overcast
30 °F
Feels Like 25 °F
N
5
Wind Variable Wind from NNE

Today
High -- | Low -- °F
--% Chance of Precip.
Yesterday
High -- | Low -- °F
Precip. -- in
Pressure 29.50 in
Visibility 10.0 miles
Clouds Scattered Clouds 6500 ft
Mostly Cloudy 8500 ft
Overcast 12000 ft
Windchill 25 °F
Dew Point 19 °F
Humidity 64%
Rainfall 0.00 in
Snow Depth Not available.
8:54 AM 5:34 PM
Waxing Crescent, 11% visible
METAR PAMR 111053Z 02004KT 10SM SCT065 BKN085 OVC120 M01/M07 A2950 RMK AO2 SLP990 T10111072
Pressure 29.50 in
Visibility 10.0 miles
Clouds Scattered Clouds 6500 ft
Mostly Cloudy 8500 ft
Overcast 12000 ft
Windchill 25 °F
Dew Point 19 °F
Humidity 64%
Rainfall 0.00 in
Snow Depth Not available.
8:54 AM 5:34 PM
Waxing Crescent, 11% visible
METAR PAMR 111053Z 02004KT 10SM SCT065 BKN085 OVC120 M01/M07 A2950 RMK AO2 SLP990 T10111072

10-Day Weather Forecast

Almanac

Astronomy

Feb. 11, 2016 Rise Set
Actual Time
Civil Twilight
Nautical Twilight
Astronomical Twilight
Moon
Length of Visible Light
Length of Day
Tomorrow will be .
, % of the Moon is Illuminated

Today's Extremes

State Highs State Lows

Community

WunderPhotos

Upload Photos

1,892,035 photos uploaded!

WunderBlog® & News

Nearby

Air Quality

  Air Quality AQ Index Pollutant
Not available.

Snow Depth

Station Depth Elevation

Earthquake Activity

City Distance Mag. Time & Date
Minimum magnitude displayed is 2.5.

Coastal Water Temperatures

Place Temperature

Stations

Nearby Weather Stations

Station Location Temp. Windchill Dew Point Humidity Wind Precip. Elev Updated Type
                   

Watches & Warnings

There are currently no watches in effect.